Location: *
(33.6842°N, 117.7925°W)
Time: 22:02:21
(UTC+00:00)

Cosmos 2237 Rocket - Pass Details

Date: 21 October 2019
Orbit: 833 x 851 km, 71.0° (Epoch: 17 November)

Event Time Altitude Azimuth Distance (km) Brightness Sun altitude
Exits shadow 12:58:44 14° 306° (NW) 2,212 3.9 -13.6°
Drops below altitude 10° 13:01:29 10° 335° (NNW) 2,477 4.4 -13.0°
Sets 13:05:20 0° 1° (N) 3,419 5.3 -12.2°
